Regional Weather Roundup
Issued by NWS

Home | Current Version | Previous Version | Text Only | Print | Product List | Glossary Off
Versions: 1 2 3 4 5 6 7 8 9 10 11 12 13 14 15 16 17 18 19 20 21 22 23 24 25 26 27 28 29 30 31 32 33 34 35 36 37 38 39 40 41 42 43 44 45 46 47 48 49 50

000
ASUS43 KLOT 281458
RWRIL

ILLINOIS REGIONAL WEATHER ROUNDUP
NATIONAL WEATHER SERVICE CHICAGO/ROMEOVILLE IL
1000 AM CDT THU AUG 28 2014

NOTE: "FAIR" INDICATES FEW OR NO CLOUDS BELOW 12,000 FEET WITH NO
SIGNIFICANT WEATHER AND/OR OBSTRUCTIONS TO VISIBILITY.

* THESE STATIONS ARE NOT UNDER NWS QUALITY CONTROL. THEY ALSO MAY NOT
  REPORT WEATHER SUCH AS PRECIPITATION OR FOG.

ILZ001-002-007-009-015-016-024-281600-
NORTHWEST ILLINOIS

CITY           SKY/WX    TMP DP  RH WIND       PRES   REMARKS
MOLINE         PTSUNNY   71  61  70 E13       30.08S
$$

ILZ003-004-008-010-011-017-018-281600-
NORTH CENTRAL ILLINOIS

CITY           SKY/WX    TMP DP  RH WIND       PRES   REMARKS
ROCKFORD       NOT AVBL
$$

ILZ005-006-012>014-019>023-281600-
NORTHEAST ILLINOIS

CITY           SKY/WX    TMP DP  RH WIND       PRES   REMARKS
CHICAGO-OHARE  MOSUNNY   72  53  51 E12       30.13S
CHICAGO-MIDWAY MOSUNNY   72  57  59 E12       30.13S
AURORA         SUNNY     73  56  54 E9        30.14R
WAUKEGAN       SUNNY     68  52  56 E9G18     30.14S
DUPAGE AIRPORT SUNNY     73  56  54 E9        30.12S
WHEELING       SUNNY     72  54  53 E8        30.15S
NORTHERLY ISL    N/A     69  57  65 E9          N/A
$$

LMZ740>746-281600-
SOUTHERN LAKE MICHIGAN

STATION/POSITION SKY/WX   TEMP    WIND        PRES    VSBY  WAVE
                          AIR SEA DIR/SP/G                  HT/PER
                          (F)     (DEG/KT/KT) (MB)    (MI)  (FT/S)
SOUTHERN BUOY              65 69  110/ 12/ 14 1021.1S         2/ 4
WAUKEGAN HARBOR            68     100/ 13/ 15   N/A
HARRISON CRIB              67      90/ 12/ 15   N/A
BURNHAM HARBOR             69      60/  8/ 13   N/A
CALUMET HARBOR             67      80/  7/ 10 1019.2F
MICHIGAN CITY              64      60/  3/  5   N/A
MICHIGAN CITY 6N           65 72   90/  4/  6   N/A           2/ 4
ST. JOSEPH                 66 72   90/  6/ 10   N/A           1/ 4
$$

ILZ025>027-034>036-040-047-049-050-058-095>099-281600-
WEST-CENTRAL ILLINOIS

CITY           SKY/WX    TMP DP  RH WIND       PRES   REMARKS
QUINCY         PTSUNNY   75  70  84 SE12      30.04S
$$

ILZ028>032-037-038-041>044-048-051>054-059>061-281600-
CENTRAL ILLINOIS

CITY           SKY/WX    TMP DP  RH WIND       PRES   REMARKS
PEORIA         PTSUNNY   73  63  70 E8        30.09S
SPRINGFIELD    PTSUNNY   77  67  71 SE7       30.07S
TAYLORVILLE    NOT AVBL
$$

ILZ033-039-045-046-055>057-062-063-281600-
EAST-CENTRAL ILLINOIS

CITY           SKY/WX    TMP DP  RH WIND       PRES   REMARKS
CHAMPAIGN      MOSUNNY   74  68  81 E7        30.11S
MATTOON        PTSUNNY   76  66  71 CALM      30.08S
$$

ILZ079-100>102-281600-
SOUTHWEST ILLINOIS

CITY           SKY/WX    TMP DP  RH WIND       PRES   REMARKS
ALTON          MOSUNNY   79  73  83 SE7       30.06S HX  82
$$

ILZ064>066-069>071-074>076-080>082-084>086-088>090-092>094-281600-
SOUTH-CENTRAL ILLINOIS

CITY           SKY/WX    TMP DP  RH WIND       PRES   REMARKS
CARBONDALE     SUNNY     79  72  79 CALM      30.05S HX  82
MARION         PTSUNNY   82  73  74 SE5       30.06S HX  88
$$

ILZ067-068-072-073-078-083-087-091-281600-
SOUTHEAST ILLINOIS

CITY           SKY/WX    TMP DP  RH WIND       PRES   REMARKS
LAWRENCEVILLE  MOSUNNY   78  70  76 E6        30.07S HX  80
$$

ABBREVIATIONS USED IN REMARKS
   TC - TEMPERATURE IN CELSIUS
  WCI - WIND CHILL INDEX
   HX - HEAT INDEX
  VSB - VISIBILITY
$$



USA.gov is the U.S. government's official web portal to all federal, state and local government web resources and services.